Date_and_time,latitude,longitude,wind_speed,RelWindDirFrom,WindDirFrom,air_pressure,air_temperature,relative_humidity,Temp,platform_speed_wrt_ground,air_pressure_at_mean_sea_level,platform_orientation
2019-06-01 00:00,50.6304566666667,-96.9807416666667,12.6,14.7,18,987.76,12.8,52,14.34,0.0,1014.40,36.6
2019-06-01 00:10,50.6304433333333,-96.980735,13.4,16.0,17,987.69,12.9,49,14.34,0.0,1014.31,36.6
2019-06-01 00:20,50.6304466666667,-96.9807533333333,14.1,16.3,20,987.68,12.9,51,14.32,0.0,1014.29,36.6
2019-06-01 00:30,50.63045,-96.980755,13.7,16.9,16,987.72,13.0,53,14.30,0.0,1014.33,36.6
2019-06-01 00:40,50.6304383333333,-96.9807533333333,15.0,18.7,17,987.65,13.1,52,14.28,0.0,1014.25,36.6
2019-06-01 00:50,50.63045,-96.9807583333333,14.9,17.1,17,987.59,13.1,52,14.27,0.0,1014.18,36.6
2019-06-01 01:00,50.63045,-96.9807616666667,15.2,18.2,16,987.52,13.1,53,14.24,0.0,1014.11,345.5
2019-06-01 01:10,50.6304466666667,-96.9807433333333,14.7,16.9,18,987.53,13.1,55,14.23,0.0,1014.11,345.5
2019-06-01 01:20,50.6304583333333,-96.980755,15.5,18.2,18,987.49,13.0,55,14.21,0.0,1014.08,345.5
2019-06-01 01:30,50.63046,-96.9807533333333,14.8,17.1,17,987.56,12.9,55,14.19,0.0,1014.15,345.5
2019-06-01 01:40,50.6304583333333,-96.9807533333333,15.0,18.1,19,987.58,12.8,56,14.18,0.0,1014.18,345.5
2019-06-01 01:50,50.6304583333333,-96.980755,13.2,18.1,9,987.65,12.8,54,14.17,0.0,1014.24,345.5
2019-06-01 02:00,50.6304483333333,-96.98076,10.4,15.3,351,987.76,12.8,45,14.16,0.0,1014.36,360.0
2019-06-01 02:10,50.6304516666667,-96.98076,10.1,14.1,345,987.83,12.5,42,14.15,0.0,1014.43,360.0
2019-06-01 02:20,50.63045,-96.98076,8.6,12.0,341,987.94,12.1,43,14.13,0.0,1014.56,360.0
2019-06-01 02:30,50.6304583333333,-96.9807733333333,7.4,10.9,337,988.02,11.6,44,14.11,0.0,1014.66,360.0
2019-06-01 02:40,50.6304466666667,-96.9807666666667,7.4,11.0,335,988.07,11.2,44,14.11,0.0,1014.74,360.0
2019-06-01 02:50,50.6304483333333,-96.9807633333333,6.7,9.7,334,988.15,10.8,43,14.10,0.0,1014.84,360.0
2019-06-01 03:00,50.6304483333333,-96.9807633333333,5.3,8.3,330,988.21,10.5,44,14.10,0.0,1014.92,248.5
2019-06-01 03:10,50.63045,-96.9807616666667,4.4,6.2,325,988.26,10.1,44,14.12,0.0,1014.99,248.5
2019-06-01 03:20,50.63045,-96.98076,4.7,6.2,314,988.27,9.8,43,14.12,0.0,1015.02,248.5
2019-06-01 03:30,50.6304483333333,-96.9807583333333,4.4,6.1,301,988.31,9.6,45,14.13,0.0,1015.08,248.5
2019-06-01 03:40,50.6304466666667,-96.9807583333333,5.5,7.6,301,988.31,9.4,45,14.13,0.0,1015.09,248.5
2019-06-01 03:50,50.6304483333333,-96.9807466666667,5.7,7.4,305,988.31,9.0,46,14.13,0.0,1015.10,248.5
2019-06-01 04:00,50.630455,-96.9807466666667,5.5,7.7,319,988.27,8.9,47,14.13,0.0,1015.08,90.0
2019-06-01 04:10,50.6304583333333,-96.980755,4.9,6.9,320,988.19,8.8,49,14.13,0.0,1015.02,90.0
2019-06-01 04:20,50.6304516666667,-96.9807516666667,4.3,5.7,326,988.16,8.7,50,14.14,0.0,1015.02,90.0
2019-06-01 04:30,50.6304516666667,-96.9807533333333,4.8,6.4,321,988.15,8.6,51,14.13,0.0,1015.04,90.0
2019-06-01 04:40,50.6304483333333,-96.9807516666667,5.1,7.0,311,988.14,8.4,51,14.12,0.0,1015.06,90.0
2019-06-01 04:50,50.6304466666667,-96.9807516666667,5.6,7.2,311,988.14,8.2,52,14.11,0.0,1015.08,90.0
2019-06-01 05:00,50.6304483333333,-96.9807516666667,5.6,7.1,314,988.11,8.0,52,14.11,0.0,1015.07,90.0
2019-06-01 05:10,50.6304483333333,-96.9807533333333,5.8,7.3,310,988.08,7.9,53,14.12,0.0,1015.07,90.0
2019-06-01 05:20,50.6304466666667,-96.9807533333333,4.7,6.4,301,988.11,7.7,54,14.12,0.0,1015.11,90.0
2019-06-01 05:30,50.630465,-96.9807633333333,4.1,5.7,299,988.11,7.4,56,14.12,0.0,1015.14,90.0
2019-06-01 05:40,50.63045,-96.9807566666667,3.7,5.6,298,988.07,7.0,57,14.12,0.0,1015.13,90.0
2019-06-01 05:50,50.63045,-96.98076,4.8,6.8,306,987.97,7.0,56,14.12,0.0,1015.04,90.0
2019-06-01 06:00,50.6304483333333,-96.9807616666667,3.8,6.1,300,987.88,7.0,57,14.11,0.0,1014.95,90.0
2019-06-01 06:10,50.63045,-96.98076,4.2,5.9,291,987.91,6.7,58,14.10,0.0,1015.00,90.0
2019-06-01 06:20,50.6304483333333,-96.9807616666667,4.7,6.2,289,987.95,6.3,59,14.10,0.0,1015.07,90.0
2019-06-01 06:30,50.63045,-96.9807583333333,4.2,5.8,290,987.99,6.0,60,14.09,0.0,1015.14,90.0
2019-06-01 06:40,50.63045,-96.9807583333333,4.1,5.7,278,987.97,5.8,61,14.09,0.0,1015.14,90.0
2019-06-01 06:50,50.63045,-96.9807583333333,4.4,5.8,276,987.82,5.5,63,14.09,0.0,1015.00,90.0
2019-06-01 07:00,50.6304483333333,-96.9807516666667,5.4,7.4,283,987.80,5.5,62,14.09,0.0,1014.99,228.3
2019-06-01 07:10,50.6304466666667,-96.9807516666667,5.5,7.2,285,987.77,5.4,63,14.09,0.0,1014.97,228.3
2019-06-01 07:20,50.6304483333333,-96.9807516666667,5.2,6.6,281,987.74,5.1,64,14.10,0.0,1014.97,228.3
2019-06-01 07:30,50.630445,-96.980755,5.4,7.2,277,987.80,4.8,66,14.09,0.0,1015.07,228.3
2019-06-01 07:40,50.6304433333333,-96.980755,6.0,8.1,268,987.84,4.8,65,14.09,0.0,1015.11,228.3
2019-06-01 07:50,50.630445,-96.980755,5.9,8.3,266,987.78,4.8,64,14.08,0.0,1015.04,228.3
2019-06-01 08:00,50.6304433333333,-96.980755,5.1,7.0,269,987.86,4.9,66,14.07,0.0,1015.13,192.6
2019-06-01 08:10,50.6304283333333,-96.98075,5.7,7.5,269,987.88,4.7,65,14.05,0.0,1015.18,192.6
2019-06-01 08:20,50.6304383333333,-96.9807483333333,5.1,7.3,269,987.83,4.8,67,14.05,0.0,1015.14,192.6
2019-06-01 08:30,50.6304383333333,-96.9807466666667,6.2,7.4,261,987.70,4.7,65,14.04,0.0,1015.03,192.6
2019-06-01 08:40,50.63044,-96.98075,6.4,8.1,264,987.70,4.7,66,14.03,0.0,1015.04,192.6
2019-06-01 08:50,50.6304383333333,-96.9807483333333,6.2,8.1,265,987.70,4.7,67,14.02,0.0,1015.04,192.6
2019-06-01 09:00,50.6304383333333,-96.98075,7.0,8.8,263,987.74,4.4,67,14.00,0.0,1015.10,131.7
2019-06-01 09:10,50.63044,-96.98075,6.9,8.7,261,987.84,4.4,67,13.99,0.0,1015.21,131.7
2019-06-01 09:20,50.6304416666667,-96.9807516666667,6.8,8.8,257,987.88,4.3,67,13.99,0.0,1015.28,131.7
2019-06-01 09:30,50.6304416666667,-96.9807516666667,7.5,9.3,253,987.89,4.0,67,13.98,0.0,1015.31,131.7
2019-06-01 09:40,50.6304433333333,-96.98075,6.8,9.3,255,987.90,3.9,68,13.98,0.0,1015.32,131.7
2019-06-01 09:50,50.630445,-96.98075,6.4,8.4,258,987.89,4.0,68,13.97,0.0,1015.30,131.7
2019-06-01 10:00,50.63045,-96.9807466666667,7.7,9.6,262,987.89,4.1,68,13.95,0.0,1015.30,12.6
2019-06-01 10:10,50.63045,-96.98075,7.1,9.2,265,987.92,4.4,69,13.94,0.0,1015.32,12.6
2019-06-01 10:20,50.6304516666667,-96.9807516666667,7.3,9.2,264,987.95,4.7,69,13.91,0.0,1015.34,12.6
2019-06-01 10:30,50.6304516666667,-96.9807533333333,6.5,8.8,261,987.99,4.5,70,13.88,0.0,1015.39,12.6
2019-06-01 10:40,50.6304516666667,-96.9807533333333,6.5,8.3,260,988.01,4.4,71,13.85,0.0,1015.41,12.6
2019-06-01 10:50,50.63045,-96.9807533333333,6.6,8.8,254,988.03,4.5,72,13.80,0.0,1015.44,12.6
2019-06-01 11:00,50.63047,-96.9807616666667,7.2,9.7,254,988.07,4.5,74,13.77,0.0,1015.49,360.0
2019-06-01 11:10,50.630445,-96.9807583333333,7.5,10.5,258,988.08,5.0,71,13.76,0.0,1015.48,360.0
2019-06-01 11:20,50.6304516666667,-96.9807566666667,7.3,9.8,256,988.16,5.4,69,13.75,0.0,1015.55,360.0
2019-06-01 11:30,50.6304533333333,-96.9807566666667,7.4,10.4,258,988.21,5.7,67,13.73,0.0,1015.60,360.0
2019-06-01 11:40,50.6304516666667,-96.980755,6.2,8.5,268,988.36,6.1,66,13.73,0.0,1015.72,360.0
2019-06-01 11:50,50.6304533333333,-96.9807583333333,6.4,9.3,277,988.42,6.4,63,13.72,0.0,1015.77,360.0
2019-06-01 12:00,50.6304416666667,-96.9807583333333,7.2,10.2,278,988.42,7.2,57,13.71,0.0,1015.71,270.0
2019-06-01 12:10,50.6304433333333,-96.9807466666667,6.0,10.4,276,988.43,7.8,55,13.70,0.0,1015.68,270.0
2019-06-01 12:20,50.630445,-96.9807466666667,5.4,8.7,285,988.41,8.5,53,13.69,0.0,1015.64,270.0
2019-06-01 12:30,50.6304483333333,-96.9807466666667,5.7,8.4,293,988.46,8.9,53,13.67,0.0,1015.66,270.0
2019-06-01 12:40,50.63045,-96.98077,6.1,9.4,293,988.46,9.2,54,13.67,0.0,1015.66,270.0
2019-06-01 12:50,50.63044,-96.9807533333333,5.6,8.6,305,988.48,9.4,54,13.69,0.0,1015.66,270.0
2019-06-01 13:00,50.63045,-96.9807466666667,7.3,11.1,332,988.53,9.6,55,13.70,0.0,1015.68,0.0
2019-06-01 13:10,50.63045,-96.98075,6.0,8.9,335,988.59,9.7,57,13.71,0.0,1015.71,0.0
2019-06-01 13:20,50.63045,-96.9807483333333,7.4,10.6,345,988.61,9.8,57,13.72,0.0,1015.72,0.0
2019-06-01 13:30,50.6304466666667,-96.98075,8.0,10.9,352,988.62,9.7,59,13.72,0.0,1015.71,0.0
2019-06-01 13:40,50.6304483333333,-96.9807516666667,7.9,11.8,2,988.70,9.7,62,13.75,0.0,1015.78,0.0
2019-06-01 13:50,50.6304483333333,-96.9807516666667,8.0,11.2,5,988.75,9.7,61,13.73,0.0,1015.79,0.0
2019-06-01 14:00,50.6304266666667,-96.9807433333333,8.6,12.1,11,988.81,9.9,64,13.70,0.0,1015.81,360.0
2019-06-01 14:10,50.63044,-96.98075,11.0,12.8,17,988.82,9.8,65,13.69,0.0,1015.80,360.0
2019-06-01 14:20,50.63044,-96.98076,13.3,16.2,18,988.79,9.7,70,13.68,0.0,1015.75,360.0
2019-06-01 14:30,50.6304416666667,-96.98076,14.0,15.6,12,988.81,9.6,72,13.68,0.0,1015.76,360.0
2019-06-01 14:40,50.630435,-96.980755,15.2,18.0,14,988.82,9.6,74,13.67,0.0,1015.76,360.0
2019-06-01 14:50,50.6304416666667,-96.9807666666667,14.9,16.9,13,988.91,9.5,75,13.65,0.0,1015.85,360.0
2019-06-01 15:00,50.63044,-96.9807616666667,14.1,16.1,14,989.02,9.5,75,13.65,0.0,1015.96,90.0
2019-06-01 15:10,50.63044,-96.9807616666667,14.8,17.3,18,989.00,9.4,74,13.65,0.0,1015.94,90.0
2019-06-01 15:20,50.63044,-96.98076,15.6,17.5,21,988.96,9.4,73,13.65,0.0,1015.90,90.0
2019-06-01 15:30,50.6304383333333,-96.9807616666667,16.2,19.3,23,988.99,9.4,73,13.65,0.0,1015.92,90.0
2019-06-01 15:40,50.6304433333333,-96.9807566666667,17.4,20.9,22,988.96,9.3,70,13.64,0.0,1015.90,90.0
2019-06-01 15:50,50.6304433333333,-96.9807583333333,17.1,19.6,25,989.00,9.3,70,13.64,0.0,1015.94,90.0
2019-06-01 16:00,50.630445,-96.980755,16.5,19.4,24,989.08,9.2,68,13.65,0.0,1016.03,192.6
2019-06-01 16:10,50.630445,-96.9807566666667,17.4,20.3,25,989.00,9.3,66,13.66,0.0,1015.95,192.6
2019-06-01 16:20,50.630445,-96.98076,17.8,20.7,23,988.96,9.3,67,13.67,0.0,1015.91,192.6
2019-06-01 16:30,50.630445,-96.9807633333333,18.6,21.2,24,989.00,9.3,61,13.69,0.0,1015.95,192.6
2019-06-01 16:40,50.630445,-96.9807633333333,18.4,22.1,22,989.05,9.4,59,13.70,0.0,1016.00,192.6
2019-06-01 16:50,50.630445,-96.9807633333333,18.5,20.9,23,989.11,9.5,57,13.70,0.0,1016.07,192.6
2019-06-01 17:00,50.6304383333333,-96.9807216666667,17.8,21.2,30,989.18,9.5,55,13.71,0.0,1016.14,31.1
2019-06-01 17:10,50.63044,-96.9807416666667,17.1,19.9,26,989.18,9.7,55,13.71,0.0,1016.13,31.1
2019-06-01 17:20,50.630435,-96.980765,18.3,21.9,32,989.12,9.7,54,13.73,0.0,1016.06,31.1
2019-06-01 17:30,50.63044,-96.9807566666667,18.3,21.0,31,989.13,9.8,54,13.74,0.0,1016.07,31.1
2019-06-01 17:40,50.6304433333333,-96.9807616666667,17.4,20.0,31,989.17,9.8,52,13.76,0.0,1016.12,31.1
2019-06-01 17:50,50.6304433333333,-96.980765,16.5,19.5,30,989.19,9.9,52,13.77,0.0,1016.14,31.1
2019-06-01 18:00,50.6304433333333,-96.980765,16.4,20.3,27,989.16,10.0,52,13.79,0.0,1016.10,270.0
2019-06-01 18:10,50.6304433333333,-96.980765,18.2,21.3,26,989.08,10.1,51,13.82,0.0,1016.01,270.0
2019-06-01 18:20,50.630445,-96.9807683333333,17.0,19.6,26,989.16,10.2,50,13.85,0.0,1016.08,270.0
2019-06-01 18:30,50.630445,-96.9807683333333,15.8,18.8,29,989.21,10.3,49,13.88,0.0,1016.13,270.0
2019-06-01 18:40,50.630445,-96.9807666666667,14.6,17.7,30,989.27,10.4,49,13.90,0.0,1016.18,270.0
2019-06-01 18:50,50.6304466666667,-96.9807666666667,17.1,21.7,29,989.15,10.5,48,13.92,0.0,1016.05,270.0
2019-06-01 19:00,50.6304466666667,-96.9807666666667,17.5,20.6,25,989.10,10.7,48,13.94,0.0,1015.98,347.4
2019-06-01 19:10,50.6304466666667,-96.9807683333333,18.4,22.0,29,989.06,10.8,47,13.96,0.0,1015.93,347.4
2019-06-01 19:20,50.630445,-96.980775,17.2,19.5,30,989.11,10.9,45,13.97,0.0,1015.98,347.4
2019-06-01 19:30,50.6304433333333,-96.9807783333333,18.6,21.2,27,988.94,11.2,44,13.99,0.0,1015.79,347.4
2019-06-01 19:40,50.6304383333333,-96.9807633333333,17.3,22.8,33,989.01,11.2,45,14.00,0.0,1015.86,347.4
2019-06-01 19:50,50.6304416666667,-96.980765,20.3,24.2,29,988.88,11.3,45,14.02,0.0,1015.71,347.4
2019-06-01 20:00,50.6304416666667,-96.9807633333333,20.1,24.6,33,988.83,11.3,44,14.03,0.0,1015.66,270.0
2019-06-01 20:10,50.63044,-96.980765,20.3,24.3,32,988.77,11.4,44,14.02,0.0,1015.59,270.0
2019-06-01 20:20,50.63044,-96.9807683333333,20.8,24.7,30,988.70,11.5,45,14.04,0.0,1015.50,270.0
2019-06-01 20:30,50.63044,-96.9807683333333,18.9,22.1,31,988.85,11.6,46,14.05,0.0,1015.65,270.0
2019-06-01 20:40,50.63044,-96.9807683333333,19.4,22.2,29,988.84,11.6,44,14.06,0.0,1015.64,270.0
2019-06-01 20:50,50.63044,-96.9807683333333,19.4,22.6,29,988.89,11.6,44,14.07,0.0,1015.67,270.0
2019-06-01 21:00,50.6304433333333,-96.98077,18.4,21.0,28,988.94,11.8,46,14.09,0.0,1015.71,0.0
2019-06-01 21:10,50.630445,-96.98078,18.8,22.3,26,988.88,11.8,47,14.10,0.0,1015.65,0.0
2019-06-01 21:20,50.6304433333333,-96.9807616666667,17.7,20.4,32,988.98,11.7,48,14.11,0.0,1015.74,0.0
2019-06-01 21:30,50.6304383333333,-96.98076,17.8,21.1,28,989.00,11.8,48,14.11,0.0,1015.75,0.0
2019-06-01 21:40,50.63044,-96.9807633333333,17.1,20.3,30,989.03,11.8,47,14.12,0.0,1015.78,0.0
2019-06-01 21:50,50.6304183333333,-96.9807333333333,17.2,19.8,32,989.03,11.8,47,14.13,0.0,1015.78,0.0
2019-06-01 22:00,50.63045,-96.98077,17.8,20.7,26,988.95,11.9,46,14.14,0.0,1015.69,360.0
2019-06-01 22:10,50.63045,-96.9807666666667,17.4,21.6,30,988.86,12.0,47,14.16,0.0,1015.59,360.0
2019-06-01 22:20,50.63045,-96.9807733333333,18.0,21.0,26,988.85,12.0,47,14.17,0.0,1015.57,360.0
2019-06-01 22:30,50.63045,-96.9807716666667,17.8,21.3,26,988.92,12.0,47,14.18,0.0,1015.64,360.0
2019-06-01 22:40,50.6304483333333,-96.98077,18.0,21.8,19,988.97,12.1,47,14.17,0.0,1015.69,360.0
2019-06-01 22:50,50.6304466666667,-96.9807683333333,16.7,19.4,24,989.09,12.1,47,14.14,0.0,1015.80,360.0
2019-06-01 23:00,50.6304466666667,-96.9807683333333,17.9,20.6,23,989.07,12.2,48,14.15,0.0,1015.78,360.0
2019-06-01 23:10,50.6304466666667,-96.98077,16.7,19.1,20,989.23,12.2,46,14.16,0.0,1015.94,360.0
2019-06-01 23:20,50.6304466666667,-96.9807683333333,15.7,18.8,19,989.26,12.3,48,14.16,0.0,1015.97,360.0
2019-06-01 23:30,50.630435,-96.9807483333333,18.0,21.2,15,989.14,12.3,45,14.16,0.0,1015.84,360.0
2019-06-01 23:40,50.6304516666667,-96.9807716666667,15.3,19.0,16,989.28,12.4,48,14.16,0.0,1015.98,360.0
